Location: B?ogocice
(50.2413°N, 20.2361°E)
Time: 15:17:35
(UTC+00:00)

SAR-Lupe-4 - Pass Details

Date: 14 September 2024
Orbit: 476 x 483 km, 98.1° (Epoch: 03 October)

Event Time Altitude Azimuth Distance (km) Brightness Sun altitude
Rises 03:02:10 0° 6° (N) 2,559 7.6 -11.9°
Reaches altitude 10° 03:04:22 10° 357° (N) 1,672 6.5 -11.6°
Maximum altitude 03:07:36 33° 293° (WNW) 840 4.4 -11.1°
Enters shadow 03:10:03 15° 234° (SW) 1,376 5.2 -10.8°
